Flag for U.S.A. Weather past 2 weeks in Germantown, Maryland, U.S.A.

Now
73 °F

Clear.


Feels Like: 68 °F
Forecast: 62 / 82 °F
Wind: 3 mph from North

Location: Frederick Municipal Airport

Current Time: Aug 28, 2014 at 1:59:14 AM

Latest Report: Aug 28, 2014 at 1:15 AM


Visibility: 10 mi

Pressure: 29.95 "Hg

Humidity: 100%

Dew point: 73 °F

Location of GermantownLocation

Historic Weather in Germantown — Graph

°F

Germantown temperature yesterday

Maximum temperature yesterday: 90 °F (at 2:45 PM)
Minimum temperature yesterday: 70 °F (at 8:45 AM)
Average temperature yesterday: 81 °F

Past Weeks' High & Low Weather Summary

 TemperatureHumidityPressure
High90 °F (Aug 27, 2:45 PM)100% (Aug 14, 4:55 AM)30.23 "Hg (Aug 14, 4:55 AM)
Low55 °F (Aug 14, 4:55 AM)39% (Aug 15, 3:45 PM)29.79 "Hg (Aug 13, 1:50 AM)
Average72 °F80%30.02 "Hg
* Reported Aug 13 12:10 AM — Aug 28 12:55 AM, Germantown, Weather by CustomWeather, © 2014

Note: Actual official high and low records may vary slightly from our data, if they occured in-between our weather recording intervals... More about our weather records

Advertising

Germantown weather history for previous 24 hours

 ConditionsComfort  
Time TempWeatherWind HumidityBarometerVisibility
12:55 AM
Aug 28
N/AClear.No windN/A29.95 "Hg7 mi
12:15 AM72 °FClear.No wind100%29.96 "Hg10 mi
11:55 PM
Aug 27
N/AClear.6 mphN/A29.96 "Hg5 mi
11:35 PMN/AClear.3 mphN/A29.96 "Hg7 mi
11:15 PM72 °FClear.No wind100%29.96 "Hg7 mi
10:55 PM73 °FClear.No wind100%29.95 "Hg10 mi
10:35 PM73 °FPassing clouds.No wind100%29.96 "Hg10 mi
10:15 PM73 °FPassing clouds.No wind100%29.95 "Hg10 mi
9:50 PM77 °FClear.3 mph89%29.95 "Hg10 mi
9:30 PM77 °FClear.No wind89%29.95 "Hg10 mi
9:10 PM77 °FClear.3 mph89%29.96 "Hg10 mi
8:50 PM77 °FClear.3 mph89%29.96 "Hg10 mi
7:45 PM81 °FSunny.3 mph79%29.94 "Hg10 mi
6:45 PM84 °FSunny.No wind70%29.95 "Hg10 mi
5:45 PM90 °FSunny.3 mph59%29.97 "Hg10 mi
4:50 PM90 °FSunny.5 mph55%29.97 "Hg10 mi
3:45 PM90 °FHot.N/A55%29.99 "HgN/A
2:45 PM90 °FSunny.No wind59%30.02 "Hg10 mi
1:45 PM88 °FScattered clouds.No wind55%30.04 "Hg10 mi
12:47 PM86 °FScattered clouds.3 mph59%30.07 "Hg10 mi
11:50 AM84 °FSunny.3 mph58%30.08 "Hg10 mi
10:45 AM81 °FHail. Scattered clouds.3 mph62%30.10 "HgN/A
9:55 AM79 °FSunny.6 mph70%30.11 "Hg10 mi
8:45 AM70 °FSunny.7 mph94%30.12 "Hg10 mi
7:45 AMN/ASunny.No windN/AN/A10 mi
6:45 AMN/AClear.No windN/AN/A10 mi
6:30 AMN/AFog.No windN/A30.10 "Hg1 mi
6:10 AMN/AFog.No windN/A30.09 "Hg1 mi
5:30 AMN/AFog.No windN/A30.10 "Hg1 mi
4:50 AMN/AFog.No windN/A30.10 "Hg2 mi
4:30 AMN/AFog.No windN/A30.09 "Hg3 mi
4:10 AMN/AFog.No windN/A30.08 "Hg2 mi
3:50 AMN/AFog.No windN/A30.09 "Hg1 mi
3:30 AMN/AClear.No windN/A30.09 "Hg5 mi
3:10 AMN/AFog.No windN/A30.09 "Hg2 mi
2:50 AMN/AFog.No windN/A30.09 "Hg3 mi
2:30 AMN/AFog.No windN/A30.09 "Hg1 mi
2:10 AMN/AFog.No windN/A30.10 "Hg1 mi
1:50 AMN/AFog.No windN/A30.10 "Hg1 mi
1:30 AMN/AClear.No windN/A30.11 "Hg7 mi
1:10 AMN/AClear.5 mphN/A30.11 "Hg7 mi
Weather by CustomWeather, © 2014

See weather overviewHow to use our weather pages